AirNav   Everest Fuels
 
 1600 users online  

7MI1 Mc Phail Heliport
Orchard Lake, Michigan, USA

GOING TO ORCHARD LAKE?


FAA INFORMATION EFFECTIVE 10 SEPTEMBER 2020

Location

FAA Identifier: 7MI1
Lat/Long: 42-34-20.1180N 083-23-39.7690W
42-34.335300N 083-23.662817W
42.5722550,-83.3943803
(estimated)
Elevation: 970 ft. / 296 m (estimated)
Variation: 06W (1985)
Time zone: UTC -4 (UTC -5 during Standard Time)
Zip code: 48324

Heliport Operations

Heliport use: Private use, PERSONAL USE.
Activation date: 02/1982
Control tower: no
ARTCC: CLEVELAND CENTER
FSS: LANSING FLIGHT SERVICE STATION
Attendance: IREG
Wind indicator: yes
Segmented circle: no
Lights: FOR PERI LGTS CALL 561-310-5494.

Heliport Communications

WX ASOS at PTK (6 nm N): 125.025 (248-886-8551)
WX AWOS-3 at VLL (10 nm E): 119.475 (248-288-4649)
WX ASOS at DET (20 nm SE): PHONE 313-371-9696

Nearby radio navigation aids

VOR radial/distance  VOR name  Freq  Var
SVMr045/13.2SALEM VORTAC114.3003W
DXOr003/21.6DETROIT VOR/DME113.4006W
FNTr153/28.3FLINT VORTAC116.9006W
CRLr008/31.6CARLETON VOR/DME115.7003W

 
NDB name  Hdg/Dist  Freq  Var  ID
GROSSE ILE346/30.241907WRYS .-. -.-- ...
TECUMSEH040/39.023906WTCU - -.-. ..-

Heliport Services

Runway Information

Helipad H1

Dimensions: 350 x 250 ft. / 107 x 76 m
Surface: turf
Latitude: 42-34.335300N
Longitude: 083-23.662817W
Elevation: 970.0 ft.
Traffic pattern: leftleft

Heliport Ownership and Management from official FAA records

Ownership: Privately-owned
Owner: WALTER S. MC PHAIL
5600 PONTIAC TRAIL
ORCHARD LAKE, MI 48033
Phone 561-310-5494
Manager: WALTER S. MC PHAIL
5600 PONTIAC TRAIL
ORCHARD LAKE, MI 48033
Phone 561-310-5494

Heliport Operational Statistics

Aircraft based on the field: 1
Helicopters: 1
    

Additional Remarks

A40 PERIMETER LGTS.
FOR CD CTC DETROIT APCH AT 800-499-8181.

Instrument Procedures

There are no published instrument procedures at 7MI1.

Some nearby airports with instrument procedures:

KPTK - Oakland County International Airport (6 nm N)
KVLL - Oakland/Troy Airport (10 nm E)
Y47 - Oakland Southwest Airport (11 nm W)
1D2 - Canton-Plymouth-Mettetal Airport (14 nm S)
KDET - Coleman A Young Municipal Airport (20 nm SE)
 
Loc | Ops | Rwys | IFR | FBO | Links
Com | Nav | Svcs | Stats | Notes
Area around 7MI1 (Mc Phail Heliport)
 
Road maps at: MapQuest Bing Google
 
Aerial photo
No photo
 
Sectional chart

 
Airport distance calculator
Flying to Mc Phail Heliport? Find the distance to fly.

From to 7MI1

Sunrise and sunset
Times for 29-Sep-2020
 Local
(UTC-4)
 Zulu
(UTC)
Morning civil twilight07:0311:03
Sunrise07:3111:31
Sunset19:1723:17
Evening civil twilight19:4523:45

Current date and time
Zulu (UTC)  29-Sep-2020 19:25:46
Local (UTC-4)  29-Sep-2020 15:25:46
 
METAR
KPTK 
6nm N 
291853Z 24011KT 10SM BKN050 BKN150 16/07 A2980 RMK SLPNO
KVLL 
10nm E 
291855Z AUTO 20008KT 10SM SCT031 BKN070 17/10 A2982 RMK AO2 T01660104
KDET 
20nm SE 
291853Z 22010KT 10SM FEW045 BKN065 17/07 A2981 RMK AO2 SLP094 T01670072
TAF
KPTK 
6nm N 
291721Z 2918/3018 25012KT P6SM SCT025 OVC050 FM292300 25009KT P6SM SCT050 FM301000 23011KT P6SM BKN040 OVC100 PROB30 3010/3014 4SM SHRA OVC030
KDET 
20nm SE 
291721Z 2918/3018 24012KT P6SM SCT030 OVC050 FM292300 25009KT P6SM SCT050 FM300800 23011KT P6SM BKN040 OVC100 FM301400 23013G20KT P6SM BKN050 FM301700 23014G20KT 4SM SHRA OVC030
NOTAMs
Click for the latest NOTAMs
NOTAMs are issued by the DoD/FAA and will open in a separate window not controlled by AirNav.

 

 
 

Would you like to see your business listed on this page?

 If your business provides an interesting product or service to pilots, flight crews, aircraft, or users of the Mc Phail Heliport, you should consider listing it here.  To start the listing process, click on the button below
 
Add a business
 

Other Pages about Mc Phail Heliport

Update a link
 
Copyright © AirNav, LLC. All rights reserved. Privacy Policy  Contact